Regional Weather Roundup
Issued by NWS

Home | Current Version | Previous Version | Text Only | Print | Product List | Glossary Off
Versions: 1 2 3 4 5 6 7 8 9 10 11 12 13 14 15 16 17 18 19 20 21 22 23 24 25 26 27 28 29 30 31 32 33 34 35 36 37 38 39 40 41 42 43 44 45 46 47 48 49 50

000
ASUS45 KTFX 032319
RWRMT
MONTANA REGIONAL WEATHER ROUNDUP
NATIONAL WEATHER SERVICE GREAT FALLS MT
500 PM MDT THU SEP 03 2015

NOTE: "FAIR" INDICATES FEW OR NO CLOUDS BELOW 12000 FEET WITH NO
SIGNIFICANT WEATHER AND/OR OBSTRUCTIONS TO VISIBILITY.

MTZ001>007-043-040000-
WEST OF THE DIVIDE

CITY           SKY/WX    TMP DP  RH WIND       PRES   REMARKS
KALISPELL      CLOUDY    57  44  62 SE15      29.93S
MISSOULA       CLOUDY    52  47  83 SE7       29.98S
BUTTE          CLOUDY    55  40  56 W10       29.91F
MULLAN PASS    CLOUDY    44  37  76 NW5       29.99S
DEER LODGE       N/A     55  36  47 NW20G29   29.95R
EUREKA           N/A     63  41  45 NW3       29.91F
HAMILTON         N/A     52  48  87 CALM      29.98S
LIBBY            N/A     64  34  32 CALM      29.90S
PLAINS           N/A     62  41  46 E10       29.93S
RONAN            N/A     53  47  80 S6        30.01F
THOMPSON FALLS   N/A     63  41  44 W7        29.97R
$$

MTZ008-052>055-040000-
SOUTHWEST MONTANA

CITY           SKY/WX    TMP DP  RH WIND       PRES   REMARKS
BOZEMAN        PTSUNNY   71  41  33 W14       29.82R
DILLON         CLOUDY    65  40  39 NE5       29.84F
W YELLOWSTONE  MOSUNNY   73  30  20 SW20G29   29.93S
THREE FORKS      N/A     72  24  16 N10       29.85R
TWIN BRIDGES     N/A     69  36  29 N12       29.85F
$$

MTZ009-010-012-014-046-048-049-054-040000-
EAST SLOPES AND CENTRAL MONTANA

CITY           SKY/WX    TMP DP  RH WIND       PRES   REMARKS
CUT BANK       CLOUDY    52  44  74 SW5       29.95S
GREAT FALLS    CLOUDY    58  41  53 N14       29.92R
MALMSTROM AFB  LGT RAIN  61  44  53 N10       29.90S
HELENA         LGT RAIN  59  44  57 N7        29.90R
CONRAD           N/A     57  48  72 N3        29.97S
$$

MTZ011-013-016-021-045-047-050-051-040000-
NORTH CENTRAL MONTANA

CITY           SKY/WX    TMP DP  RH WIND       PRES   REMARKS
HAVRE          CLOUDY    67  40  37 N13       29.88S
LEWISTOWN      SUNNY     74  38  27 E14       29.85F
N BAR RANCH      N/A     70  37  30 NE10      29.89F
CHINOOK          N/A     66  43  42 NW13      29.86S
FORT BENTON      N/A     66  37  34 NW7       29.89R
$$

MTZ017>020-022>027-061-062-040000-
NORTHEAST MONTANA

CITY           SKY/WX    TMP DP  RH WIND       PRES   REMARKS
GLASGOW        MOSUNNY   80  38  22 N18       29.79R
JORDAN           N/A     79  42  26 NE14G22   29.77F
SIDNEY         MOSUNNY   82  50  32 N14         N/A
WOLF POINT     PTSUNNY   84  43  23 N18G28    29.76R
MALTA            N/A     77  38  24 N7        29.79F
PLENTYWOOD       N/A     77  43  29 N20G25    29.77R
POPLAR           N/A     82  43  24 N16       29.75R
SCOBEY           N/A     73  40  30 N17       29.83R
$$

MTZ028>42-056>058-040000-
SOUTHCENTRAL AND SOUTHEAST MONTANA

CITY           SKY/WX    TMP DP  RH WIND       PRES   REMARKS
BAKER          MOSUNNY   88  45  22 NE9       29.74F
BILLINGS       PTSUNNY   77  37  23 NE6       29.85R
LIVINGSTON     MOSUNNY   76  38  25 E21G32    29.78F
MILES CITY     PTSUNNY   87  44  22 NE13      29.73F
EKALAKA          N/A     85  44  23 NE7       29.79S
FORSYTH          N/A     82  41  23 NE3       29.72F
LAUREL           N/A     75  39  27 CALM      29.88R
ROUNDUP          N/A     76  36  23 N9        29.76S
$$

REGIONAL REPORTS...DAKOTAS

CITY           SKY/WX    TMP DP  RH WIND       PRES   REMARKS
WILLISTON      MOSUNNY   86  50  28 N14       29.72S
MINOT          MOSUNNY   90  68  48 N10       29.64R HX  94
DICKINSON      SUNNY     90  54  29 N6        29.70F
BEACH            N/A     86  50  28 N12       29.74S
CROSBY           N/A     81  55  41 N14       29.74R
BISMARCK       PTSUNNY   99  60  27 S17       29.64S HX  99
GRAND FORKS    MOSUNNY   91  72  53 SE20G28   29.69S HX  98
FARGO          SUNNY     91  72  53 SE16G26   29.73S HX  98
BUFFALO SD       N/A     84  51  31 NE5       29.69F
RAPID CITY     PTSUNNY   93  46  19 S12G21    29.72F
$$

REGIONAL REPORTS...WYOMING/IDAHO/WASHINGTON

CITY           SKY/WX    TMP DP  RH WIND       PRES   REMARKS
GILLETTE       MOSUNNY   90  39  16 S8        29.77F
SHERIDAN       PTSUNNY   82  41  23 W12       29.75F
BUFFALO WY     MOSUNNY   88  33  14 S15G23    29.82S
CODY           PTSUNNY   72  43  35 N12       29.82F
YELLOWSTONE LA   N/A     68  34  28 W8G24     30.03F
IDAHO FALLS    PTSUNNY   80  35  19 SW10      29.83F
SALMON         CLOUDY    59  43  55 N12       29.85R
BOISE          MOSUNNY   68  40  35 NW21G28   29.87F
SPOKANE        MOSUNNY   64  30  27 S6        29.92S
$$

REGIONAL REPORTS...ALBERTA

CITY           SKY/WX    TMP DP  RH WIND       PRES   REMARKS
EDMONTON       PTSUNNY   59  36  41 N8        29.95F
CALGARY        PTSUNNY   52  45  76 N5        29.94F
LETHBRIDGE     LGT RAIN  57  48  72 S18       29.92R
MEDICINE HAT   CLOUDY    55  48  76 NE7       29.94F
WATERTON GATE    N/A     46  43  87 SE6         N/A
CARDSTON         N/A     55  41  58 NW8         N/A
MILK RIVER       N/A     52  48  87 SE6         N/A
$$

REGIONAL REPORTS...SASKATCHEWAN

CITY           SKY/WX    TMP DP  RH WIND       PRES   REMARKS
SWIFT CURRENT  PTSUNNY   59  43  55 N12G18    29.93R
REGINA         PTSUNNY   70  39  32 N18G25    29.81S
SASKATOON      PTSUNNY   61  45  55 NW7       29.93S
CYPRESS HILLS    N/A     50  41  71 N8          N/A
VAL MARIE        N/A     70  36  28 N17G23      N/A
ROCKGLEN         N/A     68  36  30 N18G28      N/A
ASSINIBOIA       N/A     63  34  34 N10         N/A
$$



USA.gov is the U.S. government's official web portal to all federal, state and local government web resources and services.